TimeIST,TemperatureF,Dew PointF,Humidity,Sea Level PressureIn,VisibilityMPH,Wind Direction,Wind SpeedMPH,Gust SpeedMPH,PrecipitationIn,Events,Conditions,WindDirDegrees,DateUTC
12:10 AM,82.4,42.8,25,29.77,3.1,NNW,3.5,-,N/A,,Haze,340,2014-04-12 18:40:00
12:40 AM,78.8,42.8,28,29.77,3.1,NE,3.5,-,N/A,,Haze,50,2014-04-12 19:10:00
1:10 AM,75.2,46.4,36,29.77,3.1,SSE,2.3,-,N/A,,Haze,160,2014-04-12 19:40:00
1:40 AM,75.2,44.6,34,29.77,3.1,East,3.5,-,N/A,,Haze,90,2014-04-12 20:10:00
2:10 AM,75.2,44.6,34,29.74,3.1,SSW,2.3,-,N/A,,Haze,200,2014-04-12 20:40:00
2:30 AM,74,53,37,29.72,2,South,2.3,,,,Haze,180,2014-04-12 21:00:00
3:10 AM,73.4,44.6,36,29.74,3.1,North,2.3,-,N/A,,Haze,360,2014-04-12 21:40:00
4:10 AM,71.6,44.6,38,29.74,3.1,Calm,Calm,-,N/A,,Haze,0,2014-04-12 22:40:00
4:40 AM,68.0,44.6,43,29.77,3.1,SW,4.6,-,N/A,,Haze,230,2014-04-12 23:10:00
5:10 AM,69.8,44.6,40,29.77,3.1,NW,2.3,-,N/A,,Haze,320,2014-04-12 23:40:00
5:30 AM,69,53,45,29.75,2,Calm,Calm,,,,Haze,,2014-04-13 00:00:00
5:40 AM,68.0,42.8,40,29.80,3.1,Calm,Calm,-,N/A,,Haze,0,2014-04-13 00:10:00
6:40 AM,71.6,44.6,38,29.80,3.1,NNW,3.5,-,N/A,,Haze,330,2014-04-13 01:10:00
7:10 AM,78.8,42.8,28,29.83,3.1,West,3.5,-,N/A,,Haze,270,2014-04-13 01:40:00
7:40 AM,84.2,44.6,25,29.86,3.1,West,2.3,-,N/A,,Haze,280,2014-04-13 02:10:00
8:10 AM,87.8,44.6,22,29.86,3.1,WNW,3.5,-,N/A,,Haze,290,2014-04-13 02:40:00
8:30 AM,86,53,23,29.79,2,WSW,4.6,,,,Haze,250,2014-04-13 03:00:00
8:40 AM,93.2,42.8,17,29.86,3.7,WSW,5.8,-,N/A,,Haze,250,2014-04-13 03:10:00
9:10 AM,95.0,44.6,18,29.86,3.7,West,5.8,-,N/A,,Haze,260,2014-04-13 03:40:00
9:40 AM,96.8,46.4,18,29.86,3.7,WSW,4.6,-,N/A,,Unknown,240,2014-04-13 04:10:00
10:10 AM,98.6,48.2,18,29.86,3.7,SW,6.9,-,N/A,,Unknown,220,2014-04-13 04:40:00
10:40 AM,100.4,48.2,17,29.86,3.7,SW,10.4,-,N/A,,Unknown,220,2014-04-13 05:10:00
11:10 AM,102.2,46.4,15,29.86,3.7,West,6.9,-,N/A,,Unknown,260,2014-04-13 05:40:00
11:30 AM,100,57,15,29.77,2,SE,9.2,,,,Clear,140,2014-04-13 06:00:00
11:40 AM,104.0,46.4,14,29.86,3.7,WSW,9.2,-,N/A,,Unknown,240,2014-04-13 06:10:00
12:10 PM,105.8,44.6,13,29.83,3.7,WSW,6.9,-,N/A,,Unknown,240,2014-04-13 06:40:00
1:10 PM,105.8,42.8,12,29.80,3.7,SW,4.6,-,N/A,,Partly Cloudy,220,2014-04-13 07:40:00
1:40 PM,107.6,39.2,10,29.62,3.7,West,5.8,-,N/A,,Partly Cloudy,260,2014-04-13 08:10:00
2:10 PM,107.6,42.8,11,29.74,3.7,West,6.9,-,N/A,,Partly Cloudy,280,2014-04-13 08:40:00
2:30 PM,104,56,12,29.67,2,WSW,9.2,,,,Partly Cloudy,250,2014-04-13 09:00:00
2:40 PM,109.4,42.8,11,29.74,3.7,WSW,4.6,-,N/A,,Partly Cloudy,240,2014-04-13 09:10:00
3:10 PM,107.6,44.6,12,29.71,3.7,SW,8.1,-,N/A,,Partly Cloudy,220,2014-04-13 09:40:00
3:40 PM,107.6,44.6,12,29.71,3.7,West,5.8,-,N/A,,Partly Cloudy,270,2014-04-13 10:10:00
4:10 PM,109.4,44.6,11,29.68,3.7,WNW,3.5,-,N/A,,Partly Cloudy,290,2014-04-13 10:40:00
4:40 PM,107.6,44.6,12,29.68,3.7,WNW,4.6,-,N/A,,Partly Cloudy,290,2014-04-13 11:10:00
5:10 PM,105.8,44.6,13,29.68,3.7,WNW,4.6,-,N/A,,Partly Cloudy,290,2014-04-13 11:40:00
5:30 PM,102,58,15,29.67,2,WNW,4.6,,,,Scattered Clouds,290,2014-04-13 12:00:00
6:40 PM,95.0,55.4,26,29.74,3.1,South,6.9,-,N/A,,Haze,180,2014-04-13 13:10:00
7:10 PM,91.4,53.6,28,29.77,3.1,SSE,3.5,-,N/A,,Haze,160,2014-04-13 13:40:00
7:40 PM,89.6,51.8,27,29.77,3.1,SSE,4.6,-,N/A,,Haze,160,2014-04-13 14:10:00
8:10 PM,84.2,53.6,35,29.80,3.1,ESE,3.5,-,N/A,,Haze,110,2014-04-13 14:40:00
8:30 PM,86,61,33,29.75,2,SE,3.5,,,,,140,2014-04-13 15:00:00
9:10 PM,86.0,53.6,33,29.80,3.1,SE,3.5,-,N/A,,Haze,140,2014-04-13 15:40:00
9:40 PM,84.2,55.4,37,29.80,3.1,South,2.3,-,N/A,,Haze,180,2014-04-13 16:10:00
10:10 PM,80.6,53.6,39,29.80,3.1,SW,2.3,-,N/A,,Haze,220,2014-04-13 16:40:00
10:40 PM,80.6,53.6,39,29.83,3.1,West,1.2,-,N/A,,Haze,270,2014-04-13 17:10:00
11:10 PM,78.8,55.4,44,29.83,3.1,East,4.6,-,N/A,,Haze,100,2014-04-13 17:40:00
11:30 PM,80,62,43,29.81,2,SE,3.5,,,,Haze,140,2014-04-13 18:00:00
11:40 PM,80.6,55.4,42,29.83,3.1,SE,2.3,-,N/A,,Haze,140,2014-04-13 18:10:00